QPF
0.00 0.00 0.00 0.00 0.00 0.00 0.00 0.00 0.00 0.00 0.00 0.00 0.00 0.00 0.00 0.00 0.00 0.00 0.00 0.00 0.00 0.00 0.00 0.00 0.00 0.00 0.00 0.00 0.00 0.00 0.00 0.00 0.00 0.00 0.00 0.00 0.00 0.00 0.00 0.00 0.00 0.00 0.00 0.00
0.00 0.00 0.00 0.00 0.00 0.00 0.00 0.00 0.00 0.00 0.00 0.00 0.00 0.00 0.00 0.00 0.00 0.00 0.00 0.00 0.00 0.00 0.00 0.00 0.00 0.00 0.00 0.00 0.00 0.00 0.00 0.00 0.00 0.00 0.00 0.00 0.00 0.00 0.00 0.00 0.01 0.01 0.00 0.00
0.00 0.00 0.00 0.00 0.00 0.00 0.00 0.00 0.00 0.00 0.00 0.00 0.00 0.00 0.00 0.00 0.00 0.00 0.00 0.00 0.00 0.00 0.00 0.00 0.00 0.00 0.00 0.00 0.00 0.00 0.00 0.00 0.00 0.00 0.00 0.00 0.00 0.00 0.00 0.01 0.01 0.00 0.00 0.01
0.00 0.00 0.00 0.00 0.00 0.00 0.00 0.00 0.00 0.00 0.00 0.00 0.00 0.00 0.00 0.00 0.00 0.00 0.00 0.00 0.00 0.00 0.00 0.00 0.00 0.00 0.00 0.00 0.00 0.00 0.00 0.00 0.00 0.00 0.00 0.00 0.00 0.00 0.00 0.00 0.00 0.01 0.00 0.00
0.00 0.00 0.00 0.00 0.00 0.00 0.00 0.00 0.00 0.00 0.00 0.00 0.00 0.00 0.00 0.00 0.00 0.00 0.00 0.00 0.00 0.00 0.00 0.00 0.00 0.00 0.00 0.00 0.00 0.00 0.00 0.00 0.00 0.00 0.00 0.00 0.01 0.01 0.01 0.01 0.01 0.01 0.01 0.00
0.00 0.00 0.00 0.00 0.00 0.00 0.00 0.00 0.00 0.00 0.00 0.00 0.00 0.00 0.00 0.00 0.00 0.00 0.00 0.00 0.00 0.00 0.00 0.00 0.00 0.00 0.00 0.00 0.00 0.00 0.00 0.00 0.00 0.00 0.01 0.02 0.05 0.07 0.06 0.04 0.03 0.08 0.12 0.12
0.00 0.00 0.00 0.00 0.00 0.00 0.00 0.00 0.00 0.00 0.00 0.00 0.00 0.00 0.00 0.00 0.00 0.00 0.00 0.00 0.00 0.00 0.00 0.00 0.00 0.00 0.00 0.01 0.02 0.01 0.02 0.01 0.01 0.01 0.01 0.06 0.18 0.18 0.08 0.05 0.05 0.12 0.31 0.46
0.00 0.00 0.00 0.00 0.00 0.00 0.00 0.00 0.00 0.00 0.00 0.00 0.00 0.00 0.00 0.00 0.00 0.00 0.00 0.00 0.00 0.00 0.01 0.00 0.00 0.01 0.03 0.04 0.05 0.05 0.05 0.04 0.04 0.05 0.06 0.09 0.13 0.14 0.06 0.01 0.02 0.02 0.02 0.07
0.00 0.00 0.00 0.00 0.00 0.00 0.00 0.00 0.00 0.00 0.00 0.00 0.00 0.00 0.00 0.00 0.00 0.00 0.00 0.00 0.00 0.01 0.01 0.00 0.02 0.09 0.10 0.07 0.06 0.06 0.07 0.06 0.05 0.06 0.06 0.09 0.10 0.14 0.11 0.06 0.03 0.02 0.01 0.01
0.00 0.00 0.00 0.00 0.00 0.00 0.00 0.00 0.00 0.00 0.00 0.00 0.00 0.00 0.00 0.00 0.00 0.00 0.00 0.00 0.01 0.01 0.01 0.03 0.06 0.10 0.13 0.12 0.10 0.07 0.04 0.07 0.08 0.05 0.03 0.03 0.03 0.06 0.06 0.02 0.01 0.01 0.00 0.00
0.00 0.00 0.00 0.00 0.00 0.00 0.00 0.00 0.00 0.00 0.00 0.00 0.00 0.00 0.00 0.00 0.00 0.01 0.00 0.01 0.03 0.04 0.06 0.08 0.10 0.18 0.18 0.15 0.10 0.08 0.05 0.08 0.18 0.07 0.03 0.01 0.00 0.00 0.01 0.00 0.00 0.00 0.00 0.00
0.00 0.00 0.00 0.00 0.00 0.00 0.00 0.00 0.00 0.00 0.00 0.01 0.01 0.00 0.00 0.00 0.00 0.01 0.01 0.02 0.02 0.03 0.06 0.05 0.08 0.11 0.13 0.15 0.20 0.14 0.06 0.01 0.17 0.39 0.16 0.03 0.00 0.00 0.00 0.00 0.00 0.00 0.00 0.00
0.00 0.00 0.00 0.00 0.00 0.00 0.00 0.00 0.00 0.00 0.01 0.01 0.01 0.00 0.00 0.00 0.00 0.01 0.01 0.01 0.01 0.01 0.02 0.04 0.04 0.06 0.09 0.15 0.22 0.27 0.20 0.08 0.01 0.04 0.17 0.18 0.08 0.01 0.00 0.00 0.00 0.00 0.00 0.00
0.00 0.00 0.00 0.00 0.00 0.00 0.00 0.00 0.00 0.00 0.01 0.01 0.01 0.00 0.01 0.00 0.00 0.01 0.01 0.00 0.00 0.00 0.00 0.01 0.02 0.03 0.05 0.15 0.21 0.23 0.26 0.18 0.05 0.00 0.00 0.01 0.01 0.01 0.00 0.00 0.00 0.00 0.00 0.00
0.00 0.00 0.00 0.00 0.00 0.00 0.00 0.00 0.00 0.00 0.00 0.00 0.00 0.00 0.01 0.00 0.00 0.01 0.00 0.00 0.00 0.00 0.00 0.00 0.00 0.00 0.00 0.04 0.12 0.13 0.09 0.08 0.03 0.01 0.00 0.00 0.00 0.00 0.00 0.00 0.00 0.00 0.00 0.00
0.00 0.00 0.00 0.00 0.00 0.00 0.00 0.00 0.00 0.00 0.00 0.00 0.00 0.00 0.01 0.00 0.00 0.00 0.00 0.00 0.00 0.00 0.00 0.00 0.00 0.00 0.00 0.00 0.01 0.04 0.05 0.02 0.00 0.00 0.00 0.00 0.00 0.00 0.00 0.00 0.00 0.00 0.00 0.00
0.00 0.00 0.00 0.00 0.00 0.00 0.00 0.00 0.00 0.00 0.00 0.00 0.00 0.01 0.00 0.00 0.00 0.01 0.00 0.00 0.00 0.00 0.00 0.00 0.00 0.00 0.00 0.00 0.00 0.00 0.02 0.01 0.00 0.00 0.00 0.00 0.00 0.00 0.00 0.00 0.00 0.00 0.00 0.00
0.00 0.00 0.00 0.00 0.00 0.00 0.00 0.00 0.00 0.00 0.00 0.00 0.00 0.00 0.00 0.00 0.00 0.00 0.00 0.00 0.00 0.00 0.00 0.00 0.00 0.00 0.00 0.00 0.00 0.00 0.00 0.01 0.01 0.01 0.00 0.00 0.00 0.00 0.00 0.00 0.00 0.00 0.00 0.00
0.00 0.00 0.00 0.00 0.00 0.00 0.00 0.00 0.00 0.00 0.00 0.00 0.00 0.00 0.00 0.00 0.00 0.03 0.00 0.00 0.00 0.00 0.00 0.00 0.00 0.00 0.00 0.00 0.00 0.00 0.00 0.00 0.00 0.00 0.00 0.00 0.00 0.00 0.00 0.00 0.00 0.00 0.00 0.00
0.00 0.00 0.00 0.00 0.00 0.00 0.00 0.00 0.00 0.00 0.01 0.01 0.00 0.00 0.00 0.00 0.00 0.01 0.00 0.00 0.00 0.00 0.00 0.00 0.00 0.00 0.00 0.00 0.00 0.00 0.00 0.00 0.00 0.00 0.00 0.00 0.00 0.00 0.00 0.00 0.00 0.00 0.00 0.00
0.00 0.00 0.00 0.00 0.00 0.00 0.00 0.00 0.00 0.01 0.01 0.00 0.01 0.01 0.01 0.01 0.01 0.00 0.00 0.00 0.00 0.00 0.00 0.00 0.00 0.00 0.00 0.00 0.00 0.00 0.00 0.00 0.00 0.00 0.00 0.00 0.00 0.00 0.00 0.00 0.00 0.00 0.00 0.00
0.00 0.00 0.00 0.00 0.00 0.00 0.00 0.00 0.00 0.00 0.00 0.01 0.01 0.01 0.00 0.00 0.00 0.00 0.00 0.00 0.00 0.00 0.00 0.00 0.00 0.00 0.00 0.00 0.00 0.00 0.00 0.00 0.00 0.00 0.00 0.00 0.00 0.00 0.00 0.00 0.00 0.00 0.00 0.00
0.00 0.00 0.00 0.00 0.00 0.00 0.00 0.00 0.00 0.00 0.00 0.00 0.00 0.00 0.00 0.00 0.00 0.00 0.00 0.00 0.00 0.00 0.00 0.00 0.00 0.00 0.00 0.00 0.00 0.00 0.00 0.00 0.00 0.00 0.00 0.00 0.00 0.00 0.00 0.00 0.00 0.00 0.00 0.00
0.00 0.00 0.00 0.00 0.00 0.00 0.00 0.00 0.00 0.00 0.00 0.00 0.00 0.00 0.00 0.00 0.00 0.00 0.00 0.00 0.00 0.00 0.00 0.00 0.00 0.00 0.00 0.00 0.00 0.00 0.00 0.00 0.00 0.00 0.00 0.00 0.00 0.00 0.00 0.00 0.00 0.00 0.00 0.00
0.00 0.00 0.00 0.00 0.00 0.00 0.00 0.00 0.00 0.00 0.00 0.00 0.00 0.00 0.00 0.00 0.00 0.00 0.00 0.00 0.00 0.00 0.00 0.00 0.00 0.00 0.00 0.00 0.00 0.00 0.00 0.00 0.00 0.00 0.00 0.00 0.00 0.00 0.00 0.00 0.00 0.00 0.00 0.01
0.00 0.00 0.00 0.00 0.00 0.00 0.00 0.00 0.00 0.00 0.00 0.00 0.00 0.00 0.00 0.00 0.00 0.00 0.00 0.00 0.00 0.00 0.00 0.00 0.00 0.00 0.00 0.00 0.00 0.00 0.00 0.00 0.00 0.00 0.00 0.00 0.00 0.00 0.00 0.00 0.00 0.00 0.00 0.00
MSLP
1013.82 1013.00 1012.35 1012.94 1013.50 1013.44 1013.31 1012.78 1012.07 1011.74 1012.40 1012.40 1011.14 1010.13 1009.61 1009.03 1009.07 1009.61 1010.15 1010.49 1010.38 1010.14 1010.14 1009.98 1009.88 1009.46 1009.05 1008.63 1008.04 1007.47 1007.02 1006.91 1006.98 1006.57 1006.63 1006.61 1006.41 1006.77 1006.97 1007.03 1007.29 1007.79 1008.53 1009.24
1013.95 1013.27 1014.45 1014.56 1014.41 1014.21 1013.78 1013.35 1012.60 1012.56 1012.70 1012.96 1011.37 1010.24 1009.70 1009.80 1010.86 1011.05 1011.11 1011.14 1011.00 1010.79 1010.60 1010.50 1010.25 1009.81 1009.58 1009.03 1008.51 1007.74 1006.93 1006.23 1005.93 1005.66 1005.34 1005.52 1005.70 1006.00 1006.03 1006.32 1006.60 1007.02 1007.91 1008.36
1013.96 1014.73 1015.16 1014.97 1014.96 1014.64 1014.39 1014.36 1013.93 1013.56 1012.96 1012.16 1011.29 1009.29 1009.91 1011.00 1011.48 1011.75 1012.06 1012.15 1012.11 1011.94 1011.66 1011.24 1011.03 1010.86 1010.28 1009.56 1008.86 1008.07 1007.17 1006.23 1005.46 1005.19 1004.96 1004.59 1004.97 1005.32 1005.64 1005.92 1006.28 1006.36 1007.00 1007.62
1014.56 1015.44 1015.37 1015.13 1015.35 1015.63 1014.84 1015.42 1015.16 1013.98 1013.37 1011.56 1011.71 1009.90 1009.57 1010.91 1011.76 1012.59 1012.79 1012.78 1012.80 1013.02 1013.05 1012.87 1012.54 1012.29 1011.72 1010.36 1009.11 1008.11 1007.10 1005.84 1004.95 1004.56 1004.42 1004.00 1003.93 1004.13 1004.57 1005.12 1005.79 1006.17 1006.49 1006.86
1014.89 1015.45 1015.81 1015.91 1016.11 1016.03 1015.83 1016.13 1015.28 1014.30 1013.58 1012.23 1011.22 1011.50 1010.03 1011.93 1012.74 1013.37 1013.83 1014.14 1014.19 1014.17 1014.22 1014.82 1015.10 1015.07 1014.07 1012.62 1010.88 1008.18 1006.91 1005.60 1004.78 1004.10 1003.69 1003.54 1003.15 1003.42 1003.91 1004.80 1005.40 1005.88 1006.11 1006.16
1015.74 1016.45 1016.73 1016.71 1016.92 1016.81 1016.88 1016.19 1014.70 1013.97 1013.66 1012.12 1012.19 1012.51 1010.54 1012.22 1013.37 1014.20 1014.88 1015.43 1016.12 1017.00 1017.21 1017.20 1016.93 1015.99 1015.48 1014.38 1012.88 1010.71 1008.42 1007.01 1006.32 1004.17 1003.07 1002.93 1002.79 1003.10 1003.43 1003.96 1004.48 1004.84 1005.23 1005.42
1016.00 1016.33 1016.97 1017.05 1016.72 1016.98 1016.50 1015.65 1013.64 1013.03 1012.77 1012.09 1013.22 1012.96 1011.74 1012.99 1014.30 1015.40 1016.25 1018.00 1018.85 1019.10 1019.27 1019.20 1018.82 1017.67 1016.48 1015.40 1014.68 1013.08 1010.79 1008.76 1007.62 1005.76 1004.33 1003.27 1002.59 1002.96 1003.12 1003.35 1003.60 1004.44 1005.02 1005.05
1014.99 1015.99 1016.72 1017.22 1016.97 1016.96 1017.02 1016.76 1015.48 1014.62 1013.79 1013.60 1013.55 1012.50 1012.02 1013.78 1015.06 1016.21 1017.52 1019.36 1020.02 1020.40 1020.46 1020.30 1020.05 1019.24 1018.21 1016.93 1015.87 1014.65 1012.63 1010.68 1009.18 1007.37 1005.82 1004.65 1003.84 1003.67 1003.73 1003.50 1003.83 1004.53 1004.33 1004.71
1015.41 1015.92 1017.11 1017.42 1017.74 1017.98 1017.39 1017.04 1017.72 1017.20 1016.63 1015.60 1013.60 1013.32 1013.16 1014.30 1015.63 1016.73 1018.62 1019.86 1020.40 1020.48 1020.53 1020.34 1020.01 1019.53 1019.03 1018.30 1016.98 1015.77 1014.01 1012.31 1010.89 1009.31 1007.73 1006.33 1005.55 1004.73 1004.44 1005.11 1005.02 1005.40 1005.63 1004.97
1016.54 1016.42 1017.22 1017.81 1018.23 1018.37 1017.72 1018.04 1018.00 1018.10 1017.53 1015.89 1014.15 1014.13 1013.80 1015.42 1016.94 1017.48 1019.30 1020.16 1020.68 1020.84 1020.75 1020.12 1020.05 1019.96 1019.28 1018.84 1017.93 1016.51 1015.05 1013.72 1012.88 1010.78 1009.74 1008.25 1007.21 1006.37 1006.44 1005.77 1004.96 1005.31 1005.80 1004.92
1016.79 1016.99 1017.72 1018.13 1017.78 1017.43 1018.31 1018.11 1018.48 1018.61 1018.37 1016.97 1015.35 1014.53 1016.07 1017.25 1018.32 1019.11 1019.88 1020.33 1020.65 1020.70 1020.77 1020.58 1020.28 1019.99 1019.66 1019.20 1018.47 1017.45 1016.03 1014.82 1013.49 1012.93 1011.50 1010.12 1008.57 1007.58 1006.91 1006.63 1006.19 1006.31 1006.27 1006.56
1017.68 1017.47 1017.15 1017.47 1017.98 1018.25 1018.20 1018.54 1019.14 1018.76 1018.69 1018.17 1017.35 1015.88 1016.73 1017.63 1018.59 1019.82 1020.32 1020.52 1020.61 1020.71 1020.68 1020.64 1020.39 1020.33 1019.92 1019.53 1018.84 1018.06 1016.94 1015.95 1015.11 1014.09 1014.15 1011.32 1010.27 1009.69 1009.39 1008.76 1007.94 1007.47 1006.94 1006.75
1018.11 1017.63 1017.52 1017.89 1018.35 1018.58 1018.48 1018.89 1019.39 1019.60 1019.69 1018.33 1017.45 1015.89 1016.50 1017.43 1018.73 1020.02 1020.56 1020.55 1020.47 1020.32 1020.14 1020.22 1020.16 1020.55 1020.20 1019.72 1019.19 1018.50 1017.56 1016.54 1015.71 1014.34 1012.38 1011.21 1011.61 1011.31 1010.82 1010.08 1008.81 1008.40 1007.71 1007.07
1018.36 1017.56 1016.96 1016.47 1016.71 1017.46 1018.21 1018.65 1019.02 1019.08 1018.79 1017.47 1016.67 1016.27 1016.52 1018.31 1019.66 1020.36 1020.75 1020.77 1020.48 1020.38 1020.21 1020.17 1020.22 1020.45 1020.28 1019.76 1019.45 1018.74 1017.59 1016.87 1016.82 1014.70 1013.90 1013.27 1012.60 1011.32 1010.73 1010.72 1009.05 1009.37 1007.59 1007.77
1018.38 1017.92 1017.79 1017.70 1017.84 1018.10 1018.07 1018.30 1018.52 1018.68 1018.53 1018.21 1017.39 1017.31 1017.84 1019.34 1020.24 1020.86 1021.03 1020.99 1020.79 1020.56 1020.53 1020.44 1020.35 1020.31 1020.09 1019.58 1019.27 1018.96 1018.03 1016.81 1016.45 1015.73 1015.12 1013.90 1012.73 1011.00 1010.78 1010.46 1010.10 1009.01 1008.77 1008.64
1018.73 1018.52 1018.66 1018.19 1018.01 1018.01 1017.87 1018.08 1018.46 1018.73 1018.74 1018.55 1018.29 1018.04 1019.44 1019.42 1019.96 1021.15 1021.23 1021.53 1021.30 1021.11 1020.95 1020.81 1020.61 1020.55 1020.39 1019.96 1019.63 1019.18 1018.74 1017.80 1016.80 1015.35 1014.33 1013.60 1012.69 1012.52 1012.08 1011.09 1010.25 1009.90 1009.59 1009.18
1018.76 1018.54 1018.46 1017.58 1018.00 1017.85 1017.77 1017.91 1018.54 1018.92 1019.58 1020.02 1019.52 1019.40 1019.89 1020.13 1020.57 1021.62 1022.06 1022.08 1021.94 1021.82 1021.48 1021.27 1021.03 1020.78 1020.65 1020.52 1020.26 1019.64 1018.90 1018.14 1017.40 1016.54 1015.56 1014.73 1013.92 1013.03 1012.06 1011.19 1010.93 1010.62 1010.50 1010.20
1018.68 1018.64 1018.57 1017.91 1018.01 1017.60 1018.15 1018.77 1019.27 1019.55 1019.82 1020.34 1020.56 1020.55 1020.71 1020.83 1021.08 1022.16 1022.58 1022.53 1022.40 1022.27 1021.90 1021.67 1021.54 1021.16 1020.82 1020.71 1020.53 1020.09 1019.39 1018.64 1018.10 1017.32 1016.63 1015.75 1014.57 1013.61 1013.09 1012.33 1011.79 1011.24 1010.93 1010.55
1018.79 1018.69 1018.38 1018.09 1017.56 1017.74 1018.70 1019.21 1019.60 1019.81 1020.13 1020.95 1021.11 1020.96 1021.06 1021.24 1021.25 1022.42 1022.78 1022.89 1022.89 1022.64 1022.46 1022.24 1021.92 1021.57 1021.12 1020.84 1020.63 1020.22 1019.63 1019.23 1018.74 1018.20 1017.41 1016.20 1015.40 1014.38 1013.59 1012.79 1012.30 1012.00 1011.52 1010.90
1019.33 1019.35 1018.76 1018.39 1017.97 1017.61 1018.08 1019.65 1020.17 1020.60 1020.47 1021.44 1021.63 1021.70 1021.88 1021.95 1021.53 1022.04 1022.90 1022.97 1022.98 1023.00 1022.89 1022.60 1022.27 1021.84 1021.28 1020.97 1020.69 1020.09 1019.60 1019.10 1018.53 1017.98 1017.04 1016.39 1015.66 1014.77 1013.92 1013.26 1012.73 1012.24 1011.25 1010.81
1019.31 1019.28 1018.82 1018.36 1018.52 1018.44 1019.00 1019.87 1020.33 1020.78 1021.67 1021.71 1022.17 1022.40 1022.81 1022.96 1023.27 1023.15 1023.19 1023.12 1023.14 1023.09 1022.96 1022.81 1022.26 1021.76 1021.46 1021.23 1020.77 1019.93 1019.31 1018.94 1018.78 1018.10 1017.24 1016.48 1015.86 1015.31 1014.86 1013.93 1013.36 1012.53 1011.89 1011.62
1018.60 1018.54 1018.63 1019.00 1019.13 1019.05 1019.60 1020.26 1020.58 1021.15 1021.52 1022.19 1022.64 1022.88 1023.24 1023.33 1023.39 1023.18 1023.03 1023.05 1023.03 1022.92 1022.76 1022.55 1022.16 1021.96 1021.76 1021.54 1021.00 1020.27 1019.76 1019.69 1019.12 1018.20 1017.28 1016.51 1015.98 1015.56 1015.17 1014.51 1013.88 1013.37 1012.60 1012.34
1018.46 1018.52 1018.44 1018.82 1018.92 1019.61 1020.07 1020.53 1021.40 1021.81 1022.04 1022.43 1022.77 1023.13 1023.41 1023.46 1023.53 1023.53 1023.27 1023.08 1023.15 1023.04 1022.76 1022.78 1022.66 1022.20 1021.76 1021.43 1021.06 1020.65 1020.57 1020.11 1019.58 1018.95 1018.33 1017.47 1017.04 1016.23 1015.76 1014.87 1014.33 1013.65 1013.32 1012.89
1018.08 1018.54 1018.84 1019.18 1019.43 1019.59 1020.46 1021.17 1021.64 1021.97 1022.30 1022.67 1023.07 1023.37 1023.66 1023.87 1023.83 1023.82 1023.66 1023.53 1023.50 1023.31 1023.19 1023.14 1022.78 1022.35 1021.98 1021.70 1021.24 1020.89 1020.80 1020.55 1019.90 1019.24 1018.61 1018.10 1017.41 1016.37 1015.88 1015.31 1014.83 1014.29 1014.04 1013.36
1017.38 1018.08 1018.47 1019.08 1019.53 1020.03 1020.71 1021.08 1021.54 1022.07 1022.56 1022.92 1023.40 1023.85 1024.20 1024.32 1024.07 1024.14 1024.01 1024.03 1024.17 1024.22 1024.11 1024.01 1023.58 1023.06 1022.47 1022.09 1021.49 1021.24 1020.93 1020.52 1019.77 1019.27 1018.59 1018.11 1017.57 1016.84 1015.99 1015.57 1015.27 1014.87 1014.44 1014.32
1017.02 1017.24 1017.92 1017.90 1018.94 1019.67 1020.46 1021.42 1021.73 1022.27 1022.78 1023.34 1023.76 1024.07 1024.53 1024.85 1024.74 1024.79 1024.64 1024.74 1024.94 1025.01 1024.89 1024.55 1024.07 1023.53 1023.03 1022.43 1021.95 1021.40 1021.05 1020.68 1020.03 1019.36 1018.48 1018.02 1017.46 1016.74 1016.14 1015.49 1014.78 1014.75 1014.61 1014.20
Thickness
5617 5621 5625 5620 5614 5613 5611 5613 5618 5626 5620 5609 5621 5628 5635 5644 5641 5634 5627 5625 5628 5631 5636 5638 5639 5645 5651 5655 5659 5663 5668 5671 5671 5676 5677 5679 5683 5687 5687 5691 5691 5687 5684 5678
5606 5610 5599 5600 5600 5600 5603 5603 5611 5611 5610 5597 5608 5615 5625 5625 5611 5610 5608 5609 5612 5614 5619 5622 5625 5630 5633 5639 5643 5650 5658 5665 5668 5673 5677 5677 5678 5678 5682 5683 5685 5682 5677 5674
5595 5589 5588 5588 5586 5588 5589 5583 5586 5584 5593 5602 5599 5620 5606 5599 5596 5595 5593 5592 5592 5592 5596 5602 5605 5608 5615 5621 5628 5634 5642 5654 5663 5664 5667 5672 5672 5672 5671 5673 5676 5680 5676 5669
5584 5577 5576 5580 5575 5571 5577 5569 5566 5575 5576 5586 5590 5592 5607 5587 5575 5571 5572 5574 5575 5574 5574 5575 5581 5583 5587 5601 5614 5622 5631 5643 5654 5658 5657 5662 5664 5664 5668 5667 5667 5667 5668 5665
5573 5567 5563 5562 5560 5561 5561 5555 5558 5564 5565 5575 5584 5569 5590 5565 5549 5548 5549 5549 5551 5552 5554 5548 5546 5545 5555 5565 5581 5609 5620 5633 5641 5647 5651 5654 5660 5663 5663 5657 5655 5656 5658 5658
5556 5554 5550 5549 5545 5545 5542 5546 5558 5561 5558 5565 5558 5549 5578 5554 5537 5530 5528 5526 5521 5509 5506 5509 5513 5523 5526 5533 5546 5565 5588 5604 5611 5630 5644 5647 5651 5652 5650 5651 5649 5651 5648 5646
5545 5544 5540 5540 5540 5538 5542 5547 5561 5562 5560 5561 5541 5537 5555 5540 5528 5513 5506 5489 5473 5469 5464 5465 5471 5485 5499 5506 5513 5528 5548 5570 5583 5599 5615 5630 5642 5640 5638 5641 5645 5638 5634 5636
5550 5540 5534 5530 5533 5530 5526 5528 5534 5526 5544 5543 5537 5532 5540 5525 5512 5501 5487 5462 5453 5444 5438 5437 5439 5447 5458 5467 5481 5494 5512 5534 5551 5569 5586 5600 5613 5616 5620 5627 5628 5628 5630 5629
5538 5531 5521 5519 5516 5513 5515 5515 5507 5500 5504 5505 5528 5524 5527 5510 5497 5487 5465 5445 5438 5435 5430 5427 5428 5429 5431 5434 5444 5455 5472 5494 5511 5533 5554 5570 5583 5595 5602 5600 5604 5602 5606 5612
5521 5518 5512 5505 5503 5500 5504 5500 5495 5491 5468 5489 5513 5503 5502 5484 5469 5469 5439 5430 5423 5421 5420 5421 5417 5413 5415 5416 5421 5432 5446 5460 5473 5497 5518 5537 5552 5568 5573 5583 5594 5595 5595 5601
5512 5507 5498 5493 5496 5498 5486 5487 5482 5478 5477 5482 5492 5501 5473 5456 5443 5435 5426 5423 5418 5415 5409 5407 5407 5404 5404 5405 5407 5416 5426 5440 5455 5469 5484 5506 5526 5543 5557 5563 5570 5577 5581 5579
5496 5495 5495 5492 5485 5482 5482 5474 5461 5461 5456 5459 5453 5474 5460 5449 5438 5419 5415 5414 5413 5409 5406 5401 5400 5397 5395 5395 5398 5404 5413 5423 5432 5442 5450 5482 5498 5510 5520 5532 5546 5556 5567 5569
5483 5486 5479 5474 5472 5467 5465 5462 5454 5440 5428 5441 5443 5472 5461 5448 5434 5415 5407 5409 5408 5408 5408 5401 5398 5388 5388 5388 5389 5391 5401 5411 5422 5433 5453 5467 5473 5482 5495 5509 5528 5537 5547 5557
5472 5481 5486 5494 5483 5474 5456 5453 5450 5444 5438 5458 5463 5463 5458 5431 5411 5407 5401 5400 5401 5400 5400 5397 5392 5387 5384 5386 5383 5384 5394 5397 5405 5429 5436 5444 5455 5472 5487 5493 5516 5519 5538 5540
5467 5465 5469 5468 5463 5455 5452 5449 5448 5442 5445 5437 5454 5450 5441 5413 5400 5394 5394 5393 5392 5392 5390 5388 5386 5384 5385 5385 5383 5382 5385 5397 5403 5414 5421 5435 5449 5473 5482 5492 5499 5513 5519 5524
5454 5449 5439 5443 5450 5448 5444 5447 5443 5439 5440 5442 5444 5441 5413 5418 5408 5388 5388 5381 5381 5380 5380 5380 5379 5378 5377 5378 5377 5378 5379 5386 5396 5412 5425 5433 5446 5454 5464 5479 5491 5497 5504 5511
5444 5449 5444 5454 5448 5447 5443 5444 5438 5432 5417 5405 5414 5417 5409 5401 5396 5376 5370 5369 5368 5366 5369 5370 5371 5372 5370 5369 5369 5371 5376 5382 5388 5398 5409 5420 5431 5444 5458 5471 5477 5480 5486 5494
5439 5440 5438 5444 5442 5436 5430 5432 5424 5417 5416 5407 5400 5399 5394 5389 5386 5366 5362 5360 5358 5359 5361 5363 5363 5364 5366 5366 5365 5366 5369 5375 5381 5388 5397 5407 5422 5434 5441 5452 5462 5469 5475 5481
5437 5437 5435 5433 5443 5446 5421 5420 5416 5412 5413 5397 5392 5395 5391 5385 5382 5358 5355 5352 5349 5351 5352 5353 5356 5358 5362 5363 5363 5364 5367 5368 5372 5378 5387 5401 5409 5420 5429 5440 5447 5453 5460 5468
5421 5421 5429 5428 5427 5433 5435 5409 5405 5401 5415 5388 5387 5383 5377 5374 5381 5371 5351 5348 5345 5344 5343 5345 5348 5352 5357 5360 5360 5364 5367 5371 5375 5380 5389 5396 5404 5412 5421 5427 5432 5439 5452 5460
5410 5408 5418 5428 5420 5427 5417 5405 5402 5403 5396 5384 5376 5372 5362 5357 5352 5350 5346 5344 5342 5340 5339 5340 5345 5349 5351 5352 5356 5363 5369 5371 5372 5378 5386 5393 5399 5404 5408 5417 5422 5430 5438 5444
5412 5418 5415 5411 5404 5413 5406 5398 5400 5389 5383 5373 5367 5364 5355 5353 5351 5350 5347 5344 5342 5341 5340 5341 5343 5344 5345 5345 5348 5355 5359 5359 5364 5372 5380 5387 5393 5398 5401 5407 5413 5419 5426 5429
5411 5411 5424 5417 5421 5398 5395 5389 5377 5373 5371 5368 5364 5359 5355 5351 5347 5344 5344 5343 5340 5338 5339 5337 5336 5339 5342 5343 5345 5346 5346 5350 5354 5358 5363 5370 5374 5382 5385 5394 5399 5405 5409 5413
5405 5402 5400 5395 5395 5398 5384 5375 5371 5369 5365 5362 5357 5353 5350 5344 5343 5340 5339 5338 5336 5336 5334 5332 5332 5334 5336 5337 5340 5341 5340 5341 5344 5348 5353 5357 5362 5370 5374 5380 5383 5388 5390 5396
5411 5403 5396 5386 5388 5386 5377 5376 5370 5364 5360 5356 5350 5345 5339 5336 5339 5335 5334 5331 5327 5324 5322 5320 5321 5324 5328 5330 5334 5334 5335 5336 5342 5343 5347 5349 5352 5356 5362 5365 5367 5369 5370 5370
5408 5404 5395 5405 5388 5384 5378 5365 5364 5359 5355 5348 5343 5340 5334 5328 5328 5325 5325 5323 5318 5314 5313 5313 5315 5317 5320 5323 5324 5326 5327 5327 5330 5333 5339 5341 5343 5347 5351 5353 5357 5355 5354 5355